Погода в Санголе

Индия     17°26′12″N   75°11′45″E
темп.,
°C
ветер,
м/с
пор.,
м/с
влажн.,
%
обл.,
%
осадки,
мм/ч
давл.,
гПа
погр.,
м
22 апреля, чт
чт2223:30+31сз9143147 0.0 1010567
02:30+29ссз712345 0.0 1009399
05:30+28ссз4936100 0.0 1010239
08:30+32ссв671881 0.0 1012846
11:30+35св5618100 0.0 10112066
14:30+38св321593 0.0 10074042
17:30+38ссз3213100 0.0 10064018
20:30+36сз2215100 0.0 100725
23 апреля, пт
пт2323:30+34зсз4419100 0.0 1009112
02:30+31ссз61029100 0.0 1008282
05:30+29с6937100 0.0 1009224
08:30+31с6726100 0.0 1011655
11:30+36св3321100 0.0 10102163
14:30+37с1118100 0.0 10064066
17:30+38сз321542 0.0 10053779
20:30+35ююв6623100 0.0 1007599
24 апреля, сб
сб2423:30+33сз662345 0.0 1009365
02:30+30сз6112583 0.0 1008544
05:30+28сз4727100 0.0 1009204
08:30+31сз562018 0.0 1011529
11:30+36с45158 0.0 10101582
14:30+39с33113 0.0 10063756
17:30+39с43104 0.0 10054375
20:30+36ссз461211 0.0 1007105
25 апреля, вс
вс2523:30+33сз8111758 0.0 1008365
02:30+30ссз814310 0.0 1007341
05:30+29ссз610321 0.0 1008201
08:30+34ссв67195 0.0 1010647
11:30+38ссв66125 0.0 10092854
14:30+40св33115 0.0 10053804
17:30+40св13101 0.0 10044428
20:30+38сз221299 0.0 100527
26 апреля, пн
пн2623:30+33зюз8936100 0.0 1007417
02:30+31з483418 0.0 1006290
05:30+30зюз343387 0.0 100778
08:30+33зюз432973 0.0 1009806
11:30+39ссв441352 0.0 10073407
14:30+40всв331185 0.0 10034385
17:30+40св4312100 0.0 10024297
20:30+34юз872596 0.0 1006314